This is the latest recevied weather packets stored in our database for station/object EA3ANS-1. If no packets are shown the sender has not sent any weather packets the latest 10 day(s).
| Time | Temp. | Humidity | Pressure | Rain* | Wind** | Luminosity | Snow |
|---|---|---|---|---|---|---|---|
| 1777674711 | 16.67° C | - | 1023.5 hPa | 0 mm | 0 m/s | - | - |
| 1777674115 | 16.67° C | - | 1023.5 hPa | 0 mm | 0 m/s | - | - |
| 1777673516 | 16.67° C | - | 1023.5 hPa | 0 mm | 0 m/s | - | - |
| 1777672919 | 16.67° C | - | 1023.4 hPa | 0 mm | 0 m/s | - | - |
| 1777672317 | 17.22° C | - | 1023.4 hPa | 0 mm | 0 m/s | - | - |
| 1777671701 | 17.22° C | - | 1023.5 hPa | 0 mm | 0 m/s | - | - |
| 1777671099 | 16.67° C | - | 1023.5 hPa | 0 mm | 0 m/s | - | - |
| 1777670498 | 16.67° C | - | 1023.6 hPa | 0 mm | 0 m/s | - | - |
| 1777669900 | 16.67° C | - | 1023.7 hPa | 0 mm | 0 m/s | - | - |
| 1777669299 | 17.22° C | - | 1023.6 hPa | 0 mm | 0.89 m/s, 181° | - | - |
| 1777668700 | 17.22° C | - | 1023.7 hPa | 0 mm | 0.89 m/s, 194° | - | - |
| 1777668099 | 17.22° C | - | 1023.6 hPa | 0 mm | 0.89 m/s, 143° | - | - |
| 1777667488 | 17.22° C | - | 1023.2 hPa | 0 mm | 0.45 m/s, 208° | - | - |
| 1777666890 | 17.22° C | - | 1023.2 hPa | 0 mm | 0 m/s | - | - |
| 1777666293 | 17.22° C | - | 1023.2 hPa | 0 mm | 1.34 m/s, 148° | - | - |
| 1777665692 | 17.22° C | - | 1023.1 hPa | 0 mm | 1.34 m/s, 104° | - | - |
| 1777664980 | 17.22° C | - | 1023 hPa | 0 mm | 1.79 m/s, 118° | - | - |
| 1777663998 | 17.22° C | - | 1022.7 hPa | 0 mm | 1.34 m/s, 128° | - | - |
| 1777663400 | 17.78° C | - | 1022.7 hPa | 0 mm | 2.68 m/s, 159° | - | - |
| 1777662795 | 17.22° C | - | 1022.6 hPa | 0 mm | 2.68 m/s, 136° | - | - |
| 1777662193 | 17.78° C | - | 1022.6 hPa | 0 mm | 1.79 m/s, 129° | - | - |
| 1777661595 | 17.78° C | - | 1022.5 hPa | 0 mm | 2.24 m/s, 180° | - | - |
| 1777660998 | 17.78° C | - | 1022.5 hPa | 0 mm | 3.58 m/s, 134° | - | - |
| 1777660400 | 18.33° C | - | 1022.2 hPa | 0 mm | 3.58 m/s, 158° | - | - |
| 1777659803 | 18.33° C | - | 1022.1 hPa | 0 mm | 2.68 m/s, 152° | - | - |
* Rain latest hour (hover to see other rain measurements)
** Current wind speed in m/s (hover to see current wind gust speed)